CW4549 Weather Reports


Display with metric or nautical units.
time (UTC)temp
F
wind
direction
speed
MPH
gust
MPH
rain 1hr
in
rain 24hr
in
rain mn
in
humidity
%
barometer
mb
20260507224517 59 0.0 2.0 0.00 0.00 0.00 35 1008.0
20260507223017 60 0.0 5.0 0.00 0.00 0.00 37 1007.9
20260507221522 60 0.0 7.0 0.00 0.00 0.00 35 1007.9
20260507220017 60 158 1.0 8.0 0.00 0.00 0.00 36 1007.9
20260507214517 60 0.0 5.0 0.00 0.00 0.00 35 1008.1
20260507213038 60 45 1.0 8.0 0.00 0.00 0.00 38 1008.1
20260507211538 61 45 1.0 7.0 0.00 0.00 0.00 34 1008.0
20260507210042 60 0.0 7.0 0.00 0.00 0.00 36 1008.0
20260507204517 61 248 1.0 6.0 0.00 0.00 0.00 34 1008.0
20260507203038 61 68 1.0 6.0 0.00 0.00 0.00 34 1008.0
20260507201517 61 90 1.0 7.0 0.00 0.00 0.00 34 1008.0
20260507200017 61 45 1.0 8.0 0.00 0.00 0.00 36 1008.1
20260507194537 61 45 1.0 7.0 0.00 0.00 0.00 39 1008.2
20260507193017 61 158 1.0 9.0 0.00 0.00 0.00 41 1008.3
20260507191517 60 45 2.0 11.0 0.00 0.00 0.00 36 1008.4
20260507190017 61 45 1.0 14.0 0.00 0.00 0.00 37 1008.4
20260507184517 60 45 2.0 10.0 0.00 0.00 0.00 34 1008.5
20260507183017 60 68 2.0 10.0 0.00 0.00 0.00 39 1008.5
20260507181517 60 45 1.0 7.0 0.00 0.00 0.00 36 1008.6
20260507180019 60 45 1.0 6.0 0.00 0.00 0.00 37 1008.7
20260507174517 60 45 1.0 10.0 0.00 0.00 0.00 40 1009.0
20260507173017 59 45 1.0 8.0 0.00 0.00 0.00 34 1009.1
20260507171517 60 203 1.0 8.0 0.00 0.00 0.00 36 1009.4
20260507170017 60 203 1.0 7.0 0.00 0.00 0.00 40 1009.4
20260507164517 59 45 1.0 7.0 0.00 0.00 0.00 40 1009.6
20260507163059 58 68 1.0 7.0 0.00 0.00 0.00 39 1009.7
20260507161517 58 45 1.0 7.0 0.00 0.00 0.00 40 1009.8
20260507160017 58 0.0 3.0 0.00 0.00 0.00 43 1009.7
20260507154517 57 180 1.0 7.0 0.00 0.00 0.00 46 1009.7
20260507153059 57 113 1.0 7.0 0.00 0.00 0.00 41 1009.6
20260507151539 57 0.0 5.0 0.00 0.00 0.00 41 1009.6
20260507150017 56 68 1.0 9.0 0.00 0.00 0.00 41 1009.5
20260507144516 55 203 1.0 8.0 0.00 0.00 0.00 45 1009.6
20260507143035 55 225 1.0 5.0 0.00 0.00 0.00 44 1009.6
20260507141516 54 45 1.0 10.0 0.00 0.00 0.00 53 1009.7
20260507140016 53 0.0 3.0 0.00 0.00 0.00 54 1009.6
20260507134517 51 0.0 7.0 0.00 0.00 0.00 63 1009.6
20260507133017 49 68 1.0 5.0 0.00 0.00 0.00 65 1009.6
20260507131515 48 0.0 2.0 0.00 0.00 0.00 73 1009.7
20260507130016 46 0.0 3.0 0.00 0.00 0.00 85 1009.6
20260507124515 44 0.0 5.0 0.00 0.00 0.00 93 1009.7
20260507123016 43 0.0 1.0 0.00 0.00 0.00 98 1009.7
20260507121517 42 0.0 1.0 0.00 0.00 0.00 100 1009.7
20260507120016 42 0.0 1.0 0.00 0.00 0.00 100 1009.6
20260507114516 41 0.0 0.0 0.00 0.00 0.00 100 1009.6
20260507113017 40 0.0 0.0 0.00 0.00 0.00 100 1009.5
20260507111515 40 0.0 0.0 0.00 0.00 0.00 99 1009.6
20260507110015 40 0.0 0.0 0.00 0.00 0.00 99 1009.3
20260507104516 40 0.0 0.0 0.00 0.00 0.00 99 1009.0
20260507103015 40 0.0 0.0 0.00 0.00 0.00 99 1009.0
20260507101517 40 0.0 0.0 0.00 0.00 0.00 99 1009.1
20260507100017 41 0.0 0.0 0.00 0.00 0.00 99 1009.0
20260507094516 41 0.0 0.0 0.00 0.00 0.00 99 1009.0
20260507093015 41 0.0 0.0 0.00 0.00 0.00 99 1009.0
20260507091536 42 0.0 0.0 0.00 0.00 0.00 99 1008.8
20260507090016 42 0.0 0.0 0.00 0.00 0.00 99 1008.7
20260507084536 42 0.0 0.0 0.00 0.00 0.00 98 1008.5
20260507083016 42 0.0 0.0 0.00 0.00 0.00 99 1008.5
20260507081516 42 0.0 0.0 0.00 0.00 0.00 98 1008.4
20260507080016 42 0.0 0.0 0.00 0.00 0.00 98 1008.3
20260507074537 42 0.0 0.0 0.00 0.00 0.00 98 1008.3
20260507073016 42 0.0 0.0 0.00 0.00 0.00 97 1008.3
20260507071516 43 0.0 0.0 0.00 0.03 0.00 97 1008.3
20260507070017 43 0.0 0.0 0.00 0.04 0.00 97 1008.4
20260507064517 43 0.0 0.0 0.00 0.06 0.00 97 1008.5
20260507063016 44 0.0 0.0 0.00 0.08 0.00 97 1008.5
20260507061516 44 0.0 0.0 0.00 0.09 0.00 96 1008.6
20260507060058 44 0.0 0.0 0.00 0.09 0.00 96 1008.5
20260507054516 44 0.0 0.0 0.00 0.11 0.00 95 1008.6
20260507053016 44 0.0 0.0 0.00 0.14 0.00 95 1008.6
20260507051517 45 0.0 0.0 0.00 0.19 0.00 95 1008.6
20260507050038 45 0.0 0.0 0.00 0.20 0.00 95 1008.8
20260507044517 45 0.0 0.0 0.00 0.23 0.00 94 1008.8
20260507043058 46 0.0 0.0 0.00 0.23 0.00 94 1008.8
20260507041516 46 0.0 0.0 0.00 0.23 0.00 94 1008.6
20260507040017 47 0.0 0.0 0.00 0.27 0.00 94 1008.7
20260507034517 48 0.0 0.0 0.00 0.27 0.27 94 1008.5
20260507033017 48 0.0 0.0 0.00 0.27 0.27 94 1008.6
20260507031517 48 0.0 0.0 0.00 0.27 0.27 94 1008.6
20260507030017 48 0.0 0.0 0.00 0.27 0.27 93 1008.9
20260507024517 48 0.0 0.0 0.00 0.27 0.27 92 1008.8
20260507023017 48 0.0 0.0 0.00 0.27 0.27 91 1008.6
20260507021517 49 0.0 0.0 0.00 0.27 0.27 89 1008.6
20260507020058 49 0.0 0.0 0.00 0.27 0.27 88 1008.5
20260507014517 50 0.0 0.0 0.00 0.27 0.27 87 1008.4
20260507013017 51 0.0 0.0 0.00 0.28 0.27 86 1008.2
20260507011517 52 0.0 0.0 0.00 0.28 0.27 84 1008.0
20260507010017 53 0.0 0.0 0.00 0.29 0.27 81 1007.9
20260507004517 54 0.0 0.0 0.00 0.31 0.27 79 1008.0
20260507003139 55 0.0 0.0 0.00 0.33 0.27 75 1007.9
20260507001517 56 0.0 0.0 0.00 0.33 0.27 70 1007.7
20260507000017 56 0.0 1.0 0.00 0.33 0.27 63 1007.5
20260506234519 57 0.0 5.0 0.00 0.33 0.27 61 1007.3
20260506233017 57 68 1.0 7.0 0.00 0.34 0.27 60 1007.5
20260506231519 57 0.0 6.0 0.00 0.35 0.27 60 1007.3
20260506230017 58 0.0 4.0 0.00 0.35 0.27 58 1007.1